Back to catalog

STARLINK-5843

AliveCommunicationsVLEO
NORAD 57072·PAYLOAD·🇺🇸 United States

Launched Jun 22, 2023 from Vandenberg Space Force Base

Loading…

Next Passes (next 24 hours)

TLE

FreshSource: CelesTrak SupGP

Epoch: Sep 14, 2026, 13:35 UTC

1 57072C 23088AA  26257.56645833  .00027027  00000+0  97905-3 0  2571
2 57072  43.0012 109.6241 0001109 248.7757 143.5687 15.27560334    18

Track STARLINK-5843 in real time with AllMySat

Download on the App Store